Terug naar catalogus

STARLINK-32235

ActiefCommunicatieVLEO
NORAD 60739·PAYLOAD·🇺🇸 United States

Gelanceerd Aug 28, 2024 vanaf Cape Canaveral Space Force Station

Loading…

Volgende Passages (komende 24 uur)

TLE

VersSource: CelesTrak SupGP

Epoch: Sep 14, 2026, 21:36 UTC

1 60739C 24152V   26257.90048611 -.00042216  00000+0 -12474-2 0  2573
2 60739  53.1573 107.8715 0001393  82.3954 281.6149 15.34408703    14

Volg STARLINK-32235 in realtime met AllMySat

Download on the App Store